Vertical_Velocity
-1 -0 -1 1 2 -3 1 -0 2 -0 1 1 -4 1 0 -3 -2 -2 -2 -1 -3 -2 -0 -0 -0 -1 1 -1 -2 1 -0 -2 -1
0 -2 0 -1 2 -2 0 -3 -1 -1 0 -1 -2 -0 0 1 -5 -2 1 -0 -2 -4 0 -2 0 -3 1 2 -1 -1 -0 0 0
-0 1 -2 -1 1 1 -1 -2 -2 -0 1 -2 0 -1 -1 1 -1 -2 -2 -1 -5 -3 0 -0 -3 -1 -3 -1 1 -1 -2 0 -1
-2 1 -0 -1 1 0 -1 0 -1 -1 2 -1 2 -1 -2 -0 1 -2 -3 -3 -3 -1 -6 -1 -2 -3 -1 -1 -3 -1 -1 -1 -1
-2 0 -1 -0 -1 4 0 -1 -0 -2 2 -1 -1 -1 1 -1 -1 -0 0 -3 -2 -3 -6 -0 -2 -3 -3 -2 -2 -4 -2 -0 -1
-1 -2 0 -0 -3 2 1 0 -0 -4 2 0 1 -4 1 -1 -1 0 1 -1 -3 -1 -3 -1 1 -4 -2 -0 -2 -1 -3 -4 -0
-0 -1 -1 0 -1 2 0 0 -2 0 -1 -1 1 -2 1 -1 -2 -2 0 -0 -1 -3 -2 -2 2 -2 -3 -1 1 -1 -1 -1 -3
3 -1 2 3 1 3 1 -1 -1 -1 -1 -0 2 -1 0 1 -1 -1 -0 -1 0 -3 -5 1 1 1 -1 -3 -3 1 -1 -2 -2
3 -1 -1 1 -1 -1 3 1 -1 -0 -1 -3 1 1 -2 2 -1 -2 2 -0 0 -2 -4 -3 -3 2 -3 -2 -4 -1 -0 -2 -1
-1 2 -0 1 0 -1 1 1 0 0 0 1 -1 2 1 1 -1 -1 0 1 0 -0 -3 -4 -2 -1 -2 -2 -3 -2 -4 -5 -4
-8 -2 -1 2 2 -1 1 1 -0 1 -1 -3 -2 -0 2 -1 -1 -0 -0 -1 1 2 -2 -4 -2 -1 -1 -3 2 -4 1 1 -1
-4 -2 -1 1 -1 1 1 1 1 -0 -0 -2 -2 -1 2 -2 1 -0 -0 -1 0 1 -2 -4 -4 1 -0 -2 -3 0 -4 2 -1
-3 -1 -0 -1 1 0 -1 1 1 1 2 -1 -2 2 -1 -0 -1 0 -0 1 2 -1 0 -3 -5 1 -1 -3 -1 0 -1 -3 0
-1 -3 -1 -0 -3 -1 -1 -0 0 -0 1 -1 -1 1 1 -0 -1 -2 -1 -2 2 -0 -2 2 -6 0 1 -1 -1 -2 -1 -3 -1
-3 -1 1 1 0 -4 -0 0 2 1 0 -2 1 -1 1 -1 1 -2 -1 -0 0 1 -3 -0 -2 -3 0 -1 -1 -0 1 -2 -3
-3 0 1 3 1 -3 -5 2 2 0 1 0 1 0 0 -1 0 -1 -1 -2 2 2 -1 -3 -0 -4 1 0 -1 -2 -0 2 -3
3 3 0 -1 0 2 2 -4 0 -1 2 -3 1 -1 0 -1 2 0 -1 -3 0 1 3 -1 -1 -4 -2 1 -1 -3 -0 0 -0
6 4 -1 -4 0 2 -0 -6 1 -1 -1 0 1 -1 1 -1 -0 1 -2 -0 -2 -0 2 0 -0 -3 -3 -1 -0 -3 -3 -0 2
1 5 0 -2 1 1 -0 -2 -6 2 1 -1 -0 1 -0 -0 -2 1 -1 -0 -0 0 1 0 -0 -1 -2 -2 -0 1 -4 -2 -3
-4 7 2 2 3 -1 1 2 -1 1 -1 1 0 3 -0 -1 -1 1 1 -0 -2 0 -0 -1 2 -2 0 -1 -2 -0 -3 -0 0
Height
5872 5874 5877 5879 5880 5884 5886 5888 5889 5889 5891 5892 5893 5893 5894 5894 5894 5893 5891 5889 5887 5885 5882 5879 5877 5874 5874 5874 5875 5874 5873 5873 5874
5869 5872 5874 5876 5878 5882 5885 5886 5889 5888 5890 5892 5892 5892 5893 5893 5894 5892 5892 5890 5888 5886 5884 5881 5878 5876 5874 5874 5874 5874 5874 5873 5873
5866 5869 5871 5873 5875 5878 5882 5885 5888 5887 5889 5891 5891 5891 5892 5892 5893 5892 5891 5890 5889 5886 5884 5882 5879 5877 5876 5875 5873 5872 5872 5873 5872
5861 5865 5868 5870 5872 5875 5879 5882 5885 5887 5888 5890 5890 5891 5891 5892 5892 5892 5891 5890 5889 5886 5884 5883 5881 5878 5876 5876 5875 5873 5871 5870 5871
5857 5860 5864 5867 5869 5872 5876 5879 5881 5884 5887 5887 5889 5890 5890 5890 5891 5891 5891 5890 5889 5887 5884 5883 5881 5880 5877 5875 5874 5874 5872 5870 5868
5852 5855 5860 5863 5865 5869 5872 5876 5878 5881 5883 5885 5886 5888 5888 5889 5889 5890 5889 5889 5888 5887 5885 5883 5881 5880 5878 5876 5875 5873 5872 5872 5870
5846 5850 5854 5859 5863 5865 5869 5872 5875 5878 5880 5882 5883 5885 5885 5887 5887 5887 5887 5887 5888 5887 5885 5883 5882 5880 5880 5877 5874 5874 5873 5871 5872
5840 5845 5848 5853 5858 5860 5866 5869 5871 5874 5877 5879 5881 5882 5883 5884 5884 5885 5885 5885 5885 5885 5884 5882 5881 5880 5878 5877 5875 5874 5873 5872 5871
5833 5838 5842 5847 5852 5855 5861 5865 5868 5870 5873 5876 5879 5879 5881 5882 5882 5883 5883 5882 5882 5883 5882 5880 5879 5879 5877 5876 5874 5873 5872 5872 5871
5826 5831 5837 5841 5847 5852 5856 5860 5864 5865 5869 5873 5875 5877 5878 5879 5879 5880 5880 5880 5880 5879 5879 5878 5877 5876 5876 5874 5873 5871 5870 5870 5869
5817 5826 5831 5835 5841 5846 5852 5855 5860 5862 5865 5868 5870 5873 5874 5876 5875 5877 5877 5877 5877 5876 5876 5876 5874 5874 5874 5873 5871 5870 5869 5867 5867
5812 5819 5825 5829 5834 5841 5847 5851 5854 5858 5860 5864 5866 5868 5870 5872 5870 5873 5873 5874 5873 5872 5872 5873 5872 5871 5870 5870 5869 5868 5867 5866 5864
5804 5812 5818 5824 5828 5835 5840 5845 5849 5853 5856 5859 5861 5863 5865 5868 5867 5868 5871 5870 5869 5868 5868 5869 5869 5868 5867 5867 5866 5865 5864 5863 5862
5797 5805 5811 5817 5823 5829 5834 5839 5844 5848 5851 5854 5856 5858 5860 5863 5863 5863 5867 5867 5866 5864 5864 5864 5865 5865 5863 5863 5862 5861 5860 5859 5858
5790 5798 5803 5809 5815 5823 5827 5833 5837 5842 5846 5849 5851 5853 5855 5858 5859 5859 5863 5863 5863 5860 5860 5860 5860 5860 5859 5858 5857 5857 5856 5855 5854
5782 5789 5795 5800 5808 5814 5819 5826 5832 5835 5839 5842 5845 5847 5850 5852 5854 5855 5858 5859 5858 5857 5856 5856 5856 5856 5855 5854 5852 5851 5851 5849 5848
5771 5780 5786 5793 5800 5805 5812 5819 5824 5828 5833 5835 5839 5842 5845 5847 5849 5851 5853 5855 5854 5853 5851 5852 5851 5851 5850 5848 5848 5846 5845 5843 5841
5762 5770 5778 5785 5791 5797 5803 5810 5815 5821 5824 5828 5833 5835 5838 5840 5842 5845 5847 5849 5849 5849 5848 5847 5847 5846 5845 5844 5842 5840 5839 5838 5836
5752 5761 5768 5776 5782 5788 5794 5800 5806 5812 5817 5822 5825 5827 5830 5833 5836 5839 5841 5843 5843 5843 5844 5842 5841 5841 5840 5838 5836 5835 5834 5832 5830
5740 5749 5758 5765 5774 5779 5785 5792 5798 5804 5810 5814 5817 5820 5824 5827 5829 5831 5834 5834 5836 5836 5837 5837 5836 5835 5833 5832 5831 5829 5828 5826 5824